Location: Follega
(52.8850°N, 5.7362°E)
Time: 03:50:37
(UTC+00:00)

Cosmos 2297 Rocket - Pass Details

Date: 09 October 2020
Orbit: 838 x 845 km, 71.0° (Epoch: 26 October)

Event Time Altitude Azimuth Distance (km) Brightness Sun altitude
Rises 17:17:40 0° 311° (NW) 3,414 6.1 -4.3°
Reaches altitude 10° 17:21:48 10° 340° (NNW) 2,479 4.9 -4.9°
Maximum altitude 17:24:11 13° 6° (N) 2,298 4.4 -5.3°
Drops below altitude 10° 17:26:35 10° 31° (NNE) 2,479 4.3 -5.7°
Enters shadow 17:29:52 - 55° (NE) 3,181 4.7 -6.1°
